Location: Newark
(45.5167°N, 11.1667°E)
Time: 09:23:46
(UTC+00:00)

Explorer 7 - Pass Details

Date: 23 December 2019
Orbit: 485 x 679 km, 50.3° (Epoch: 21 January)

Event Time Altitude Azimuth Distance (km) Brightness Sun altitude
Rises 15:54:10 0° 295° (WNW) 3,002 11.1 -3.6°
Reaches altitude 10° 15:56:32 10° 292° (WNW) 2,102 10.4 -4.0°
Maximum altitude 16:01:21 61° 212° (SSW) 768 7.9 -4.7°
Drops below altitude 10° 16:06:10 10° 133° (SE) 2,106 9.6 -5.5°
Sets 16:08:32 0° 130° (SE) 3,008 10.4 -5.8°
